Back to catalog

CZ-6A DEB

AlivePO
NORAD 64639·DEBRIS·🇨🇳 China

Launched Aug 6, 2024 from Taiyuan Satellite Launch Center

Loading…

Next Passes (next 24 hours)

TLE

FreshSource: Space-Track

Epoch: Sep 14, 2026, 05:51 UTC

1 64639U 24140AED 26257.24395741  .00000249  00000-0  15154-3 0  9990
2 64639  88.8317 253.3394 0142028 349.2495  10.5654 13.98365156101603

Track CZ-6A DEB in real time with AllMySat

Download on the App Store